Showing default

YAM-8, 63254

Orbit data source: Space-Track

YAM-8, 63254 is a payload satellite owned by Loft Orbital (US) in SSO that was launched on Sat, 15 Mar 2025 UTC via an FALCON 9 launch vehicle from the Air Force Western Test Range (AFWTR). Payload-class satellites include a variety of spacecraft equipped with specific instruments for various scientific and technological missions. These include communications satellites like Starlink; space stations such as the ISS; scientific satellites like the Hubble; Earth observation satellites from companies like Planet Labs, Umbra, and HawkEye 360; GPS; miniature CubeSats for education and research; and military/defense satellites.

Loading next visibility...
Identifier
63254, 2025-052AW
Orbit
SSO
Country
Flag of USUS
Related business
Manufacturer
Airbus/Toulouse
Mission
Operational Commercial Technology
Bus & Motor
ARROW, Unknown motor
Mass
~150 kg wet, ~140 kg dry
Launch date (UTC)
2025-03-15 (1 year ago)
Launch vehicle
FALCON 9
Launch site
Air Force Western Test Range (AFWTR)
Object type
Payload
Rocket body
Debris
Shape & HBR
Trap Box + 2 Pan, 2.3 m
Radar Cross Section
2.032 m², Medium (>0.1 m² and < 1m²)

Expand to show TLE details & history
Last TLE update: 9 hours ago

TLE from 9 hours ago
0 YAM-8
1 63254U 25052AW  26072.63826721  .00007383  00000-0  44639-3 0  9996
2 63254  97.7031 333.4672 0002840 138.0820 222.0627 15.10958161 54831
Epoch: 2026-03-13T15:19Z
TLE epoch observation values (Epoch: 2026-03-13T15:19:06.286Z)
Latitude
-0.00007°
Longitude
-67.57991°
Altitude
537.804 km
Speed
7.593 km/s
True Right ascension
22h 13m 52s
True Declination
0° 00' 00"
Sunlit
Object was in daylight at epoch
Visualization orbit readout
Latitude
Unknown
Longitude
Unknown
Altitude
Unknown
Speed
Unknown
Apparent Right ascension
Unknown
Apparent Declination
Unknown
Sunlit
N/A
Visualization observer readout
Local Sidereal Time
04:32:45
Azimuth
Unknown
Elevation
Unknown
Doppler factor
Unknown
Orbital elements
Apogee altitude
532.229 km
Perigee altitude
528.305 km
Semi-major axis
6,908.404 km
Eccentricity
0.00028
Inclination
97.7031°
RAAN
333.4672°
Arg. of periapsis
138.082°
True anomaly
222.0409°
Mean anomaly
222.0627°
Eccentric anomaly
222.0518°
Mean motion
3.77987 °/min
Orbital period
95.24 mins
BSTAR
0.00044639
Loading maneuver chart data...
Computing Atmospheric mass density...
Loading historical data...
Loading historical data...
Loading historical data...
Loading historical data...
Loading historical data...
Loading historical data...
Loading historical data...

Documentation

Showing up to 5 results
|